| time (UTC) | temp F | wind direction | speed knots | gust knots | rain 1hr in | rain 24hr in | rain mn in | humidity % | barometer mb |
| 20260504150815 | 64 | 202 | 9.6 | 14.8 | 0.00 | 0.00 | 0.00 | 66 | 1007.9 |
| 20260504150539 | 64 | 173 | 9.6 | 14.8 | 0.00 | 0.00 | 0.00 | 67 | 1007.8 |
| 20260504141209 | 61 | 222 | 7.8 | 14.8 | 0.00 | 0.00 | 0.00 | 67 | 1007.9 |
| 20260504140703 | 60 | 205 | 8.7 | 14.8 | 0.00 | 0.00 | 0.00 | 66 | 1008.0 |
| 20260504140157 | 60 | 220 | 8.7 | 14.8 | 0.00 | 0.00 | 0.00 | 67 | 1008.0 |
| 20260504130627 | 57 | 224 | 8.7 | 13.0 | 0.00 | 0.00 | 0.00 | 69 | 1008.4 |
| 20260504130127 | 57 | 205 | 7.8 | 13.0 | 0.00 | 0.00 | 0.00 | 69 | 1008.5 |
| 20260504120116 | 54 | 191 | 8.7 | 14.8 | 0.00 | 0.00 | 0.00 | 71 | 1008.6 |
| 20260504110612 | 51 | 0 | 6.1 | 13.0 | 0.00 | 0.00 | 0.00 | 74 | 1008.6 |
| 20260504110112 | 51 | 201 | 7.0 | 13.0 | 0.00 | 0.00 | 0.00 | 74 | 1008.4 |
| 20260504100610 | 51 | 192 | 8.7 | 14.8 | 0.00 | 0.00 | 0.00 | 74 | 1008.5 |
| 20260504100108 | 50 | 184 | 7.8 | 13.0 | 0.00 | 0.00 | 0.00 | 74 | 1008.6 |
| 20260504081548 | 51 | 196 | 8.7 | 16.5 | 0.00 | 0.00 | 0.00 | 71 | 1009.4 |
| 20260504081042 | 51 | 193 | 7.8 | 16.5 | 0.00 | 0.00 | 0.00 | 71 | 1009.4 |
| 20260504080536 | 51 | 225 | 7.8 | 13.0 | 0.00 | 0.00 | 0.00 | 71 | 1009.4 |
| 20260504070150 | 53 | 0 | 10.4 | 20.9 | 0.00 | 0.00 | 0.00 | 67 | 1010.2 |
| 20260504050706 | 54 | 0 | 8.7 | 16.5 | 0.00 | 0.00 | 0.00 | 64 | 1011.5 |
| 20260504050204 | 54 | 0 | 9.6 | 16.5 | 0.00 | 0.00 | 0.00 | 64 | 1011.4 |
| 20260504045704 | 54 | 0 | 9.6 | 17.4 | 0.00 | 0.00 | 0.00 | 64 | 1011.5 |
| 20260504045204 | 54 | 0 | 10.4 | 17.4 | 0.00 | 0.00 | 0.00 | 64 | 1011.6 |
| 20260504044704 | 54 | 0 | 10.4 | 17.4 | 0.00 | 0.00 | 0.00 | 64 | 1011.6 |
| 20260504044204 | 54 | 0 | 10.4 | 17.4 | 0.00 | 0.00 | 0.00 | 64 | 1011.6 |
| 20260504043934 | 54 | 0 | 9.6 | 15.6 | 0.00 | 0.00 | 0.00 | 64 | 1011.5 |
| 20260504043204 | 54 | 0 | 8.7 | 17.4 | 0.00 | 0.00 | 0.00 | 64 | 1011.5 |
| 20260504042704 | 54 | 0 | 9.6 | 17.4 | 0.00 | 0.00 | 0.00 | 64 | 1011.6 |
| 20260504042204 | 54 | 0 | 10.4 | 17.4 | 0.00 | 0.00 | 0.00 | 64 | 1011.6 |
| 20260504041704 | 54 | 0 | 10.4 | 17.4 | 0.00 | 0.00 | 0.00 | 64 | 1011.6 |
| 20260504041203 | 54 | 0 | 10.4 | 16.5 | 0.00 | 0.00 | 0.00 | 64 | 1011.7 |
| 20260504040704 | 54 | 0 | 11.3 | 16.5 | 0.00 | 0.00 | 0.00 | 64 | 1011.7 |
| 20260504040435 | 54 | 0 | 11.3 | 18.2 | 0.00 | 0.00 | 0.00 | 63 | 1011.8 |
| 20260504035703 | 54 | 0 | 11.3 | 18.2 | 0.00 | 0.00 | 0.00 | 63 | 1011.8 |
| 20260504035157 | 54 | 0 | 10.4 | 19.1 | 0.00 | 0.00 | 0.00 | 64 | 1011.9 |
| 20260504034656 | 54 | 0 | 10.4 | 19.1 | 0.00 | 0.00 | 0.00 | 63 | 1011.9 |
| 20260504034426 | 54 | 0 | 11.3 | 19.1 | 0.00 | 0.00 | 0.00 | 63 | 1011.9 |
| 20260504033656 | 54 | 0 | 10.4 | 20.0 | 0.00 | 0.00 | 0.00 | 63 | 1011.9 |
| 20260504033156 | 54 | 0 | 10.4 | 20.0 | 0.00 | 0.00 | 0.00 | 63 | 1011.9 |
| 20260504032655 | 54 | 0 | 10.4 | 19.1 | 0.00 | 0.00 | 0.00 | 63 | 1012.0 |
| 20260504032427 | 54 | 0 | 9.6 | 19.1 | 0.00 | 0.00 | 0.00 | 64 | 1012.1 |
| 20260504031927 | 54 | 0 | 9.6 | 19.1 | 0.00 | 0.00 | 0.00 | 63 | 1012.1 |
| 20260504031802 | 54 | 0 | 10.4 | 19.1 | 0.00 | 0.00 | 0.00 | 63 | 1012.1 |
| 20260504030656 | 54 | 0 | 11.3 | 20.9 | 0.00 | 0.00 | 0.00 | 63 | 1012.1 |
| 20260504030153 | 54 | 0 | 12.2 | 20.0 | 0.00 | 0.00 | 0.00 | 63 | 1012.2 |
| 20260504025925 | 54 | 0 | 12.2 | 20.0 | 0.00 | 0.00 | 0.00 | 63 | 1012.3 |
| 20260504025152 | 54 | 0 | 11.3 | 18.2 | 0.00 | 0.00 | 0.00 | 63 | 1012.4 |
| 20260504024923 | 53 | 0 | 11.3 | 18.2 | 0.00 | 0.00 | 0.00 | 64 | 1012.4 |
| 20260504024152 | 53 | 0 | 11.3 | 18.2 | 0.00 | 0.00 | 0.00 | 64 | 1012.5 |
| 20260504023653 | 53 | 0 | 10.4 | 20.0 | 0.00 | 0.00 | 0.00 | 65 | 1012.5 |
| 20260504023153 | 53 | 0 | 10.4 | 20.0 | 0.00 | 0.00 | 0.00 | 65 | 1012.5 |
| 20260504022657 | 53 | 0 | 10.4 | 20.0 | 0.00 | 0.00 | 0.00 | 65 | 1012.6 |
| 20260504022653 | 53 | 0 | 10.4 | 20.0 | 0.00 | 0.00 | 0.00 | 65 | 1012.6 |
| 20260504021650 | 53 | 0 | 10.4 | 19.1 | 0.00 | 0.00 | 0.00 | 66 | 1012.5 |
| 20260504021150 | 53 | 0 | 11.3 | 19.1 | 0.00 | 0.00 | 0.00 | 66 | 1012.6 |
| 20260504020655 | 53 | 0 | 9.6 | 19.1 | 0.00 | 0.00 | 0.00 | 68 | 1012.7 |
| 20260504020651 | 53 | 0 | 10.4 | 19.1 | 0.00 | 0.00 | 0.00 | 67 | 1012.7 |
| 20260504015650 | 52 | 181 | 7.8 | 16.5 | 0.00 | 0.00 | 0.00 | 69 | 1012.6 |
| 20260504015150 | 52 | 179 | 7.0 | 12.2 | 0.00 | 0.00 | 0.00 | 70 | 1012.6 |
| 20260504014921 | 51 | 192 | 7.0 | 15.6 | 0.00 | 0.00 | 0.00 | 71 | 1012.5 |
| 20260504014148 | 51 | 163 | 7.0 | 15.6 | 0.00 | 0.00 | 0.00 | 72 | 1012.6 |
| 20260504013649 | 51 | 144 | 8.7 | 16.5 | 0.00 | 0.00 | 0.00 | 71 | 1012.5 |
| 20260504013419 | 51 | 169 | 8.7 | 16.5 | 0.00 | 0.00 | 0.00 | 71 | 1012.6 |
| 20260504012649 | 51 | 157 | 7.8 | 12.2 | 0.00 | 0.00 | 0.00 | 71 | 1012.6 |
| 20260504012149 | 51 | 167 | 7.0 | 12.2 | 0.00 | 0.00 | 0.00 | 71 | 1012.7 |
| 20260504011640 | 51 | 131 | 7.0 | 11.3 | 0.00 | 0.00 | 0.00 | 71 | 1012.8 |
| 20260504011134 | 51 | 188 | 7.0 | 13.0 | 0.00 | 0.00 | 0.00 | 71 | 1012.8 |
| 20260504010635 | 51 | 189 | 7.0 | 13.0 | 0.00 | 0.00 | 0.00 | 71 | 1012.7 |
| 20260504010134 | 51 | 167 | 7.0 | 12.2 | 0.00 | 0.00 | 0.00 | 71 | 1012.8 |
| 20260504005634 | 51 | 181 | 7.0 | 13.0 | 0.00 | 0.00 | 0.00 | 71 | 1012.8 |
| 20260504005132 | 51 | 169 | 6.1 | 13.0 | 0.00 | 0.00 | 0.00 | 71 | 1013.0 |
| 20260504004633 | 51 | 152 | 6.1 | 10.4 | 0.00 | 0.00 | 0.00 | 71 | 1013.0 |
| 20260504004132 | 51 | 160 | 6.1 | 11.3 | 0.00 | 0.00 | 0.00 | 71 | 1012.8 |
| 20260504003633 | 51 | 164 | 6.1 | 11.3 | 0.00 | 0.00 | 0.00 | 71 | 1013.0 |
| 20260504003132 | 51 | 173 | 6.1 | 10.4 | 0.00 | 0.00 | 0.00 | 71 | 1013.0 |
| 20260504002632 | 51 | 150 | 6.1 | 9.6 | 0.00 | 0.00 | 0.00 | 70 | 1012.9 |
| 20260504002403 | 51 | 163 | 6.1 | 9.6 | 0.00 | 0.00 | 0.00 | 71 | 1012.9 |
| 20260504001902 | 51 | 172 | 6.1 | 10.4 | 0.00 | 0.00 | 0.00 | 71 | 1013.0 |
| 20260504001133 | 51 | 165 | 6.1 | 10.4 | 0.00 | 0.00 | 0.00 | 72 | 1013.0 |
| 20260504000638 | 51 | 149 | 5.2 | 8.7 | 0.00 | 0.00 | 0.00 | 72 | 1012.9 |
| 20260504000632 | 51 | 161 | 5.2 | 8.7 | 0.00 | 0.00 | 0.00 | 72 | 1012.9 |
| 20260503235635 | 51 | 147 | 5.2 | 9.6 | 0.00 | 0.00 | 0.00 | 72 | 1012.9 |
| 20260503235134 | 51 | 171 | 5.2 | 9.6 | 0.00 | 0.00 | 0.00 | 71 | 1012.8 |
| 20260503234859 | 51 | 148 | 5.2 | 7.8 | 0.00 | 0.00 | 0.00 | 71 | 1012.9 |
| 20260503234122 | 52 | 173 | 4.3 | 7.8 | 0.00 | 0.00 | 0.00 | 71 | 1013.1 |
| 20260503233616 | 52 | 207 | 5.2 | 7.8 | 0.00 | 0.00 | 0.00 | 71 | 1013.1 |
| 20260503233110 | 52 | 199 | 5.2 | 8.7 | 0.00 | 0.00 | 0.00 | 71 | 1013.2 |
| 20260503232604 | 52 | 186 | 4.3 | 11.3 | 0.00 | 0.00 | 0.00 | 70 | 1013.2 |
| 20260503232058 | 52 | 179 | 4.3 | 11.3 | 0.00 | 0.00 | 0.00 | 70 | 1013.2 |
| 20260503231552 | 52 | 0 | 6.1 | 12.2 | 0.00 | 0.00 | 0.00 | 70 | 1013.2 |
| 20260503231317 | 52 | 0 | 7.0 | 12.2 | 0.00 | 0.00 | 0.00 | 69 | 1013.3 |
| 20260503230540 | 52 | 0 | 7.0 | 12.2 | 0.00 | 0.00 | 0.00 | 70 | 1013.3 |
| 20260503230034 | 52 | 0 | 7.0 | 12.2 | 0.00 | 0.00 | 0.00 | 69 | 1013.3 |
| 20260503225528 | 52 | 0 | 6.1 | 10.4 | 0.00 | 0.00 | 0.00 | 70 | 1013.4 |
| 20260503225022 | 52 | 0 | 6.1 | 16.5 | 0.00 | 0.00 | 0.00 | 70 | 1013.4 |
| 20260503224516 | 51 | 0 | 7.0 | 16.5 | 0.00 | 0.00 | 0.00 | 70 | 1013.5 |
| 20260503224242 | 51 | 0 | 10.4 | 19.1 | 0.00 | 0.00 | 0.00 | 71 | 1013.9 |
| 20260503223736 | 51 | 0 | 11.3 | 24.3 | 0.00 | 0.00 | 0.00 | 70 | 1014.2 |
| 20260503222958 | 51 | 0 | 12.2 | 24.3 | 0.00 | 0.00 | 0.00 | 70 | 1014.0 |
| 20260503222453 | 51 | 0 | 14.8 | 24.3 | 0.00 | 0.00 | 0.00 | 70 | 1014.2 |
| 20260503221947 | 51 | 0 | 13.0 | 26.1 | 0.00 | 0.00 | 0.00 | 70 | 1014.3 |
| 20260503221440 | 51 | 0 | 14.8 | 25.2 | 0.00 | 0.00 | 0.00 | 70 | 1014.4 |
| 20260503220934 | 52 | 0 | 16.5 | 26.1 | 0.00 | 0.00 | 0.00 | 69 | 1014.5 |
| 20260503220429 | 52 | 246 | 14.8 | 26.1 | 0.00 | 0.00 | 0.00 | 67 | 1014.6 |
| 20260503215922 | 53 | 260 | 13.9 | 22.6 | 0.00 | 0.00 | 0.00 | 66 | 1014.4 |
| 20260503215422 | 53 | 240 | 13.9 | 22.6 | 0.00 | 0.00 | 0.00 | 66 | 1014.5 |
| 20260503215153 | 54 | 0 | 15.6 | 26.1 | 0.00 | 0.00 | 0.00 | 65 | 1014.3 |
| 20260503214654 | 54 | 254 | 17.4 | 28.7 | 0.00 | 0.00 | 0.00 | 65 | 1014.4 |
| 20260503213922 | 54 | 281 | 15.6 | 28.7 | 0.00 | 0.00 | 0.00 | 63 | 1014.4 |
| 20260503213652 | 55 | 0 | 15.6 | 28.7 | 0.00 | 0.00 | 0.00 | 62 | 1014.3 |
| 20260503213152 | 56 | 285 | 14.8 | 28.7 | 0.00 | 0.00 | 0.00 | 58 | 1014.2 |
| 20260503212421 | 58 | 229 | 13.9 | 24.3 | 0.00 | 0.00 | 0.00 | 45 | 1013.7 |
| 20260503211922 | 59 | 217 | 14.8 | 24.3 | 0.00 | 0.00 | 0.00 | 45 | 1013.7 |
| 20260503211422 | 59 | 225 | 13.9 | 24.3 | 0.00 | 0.00 | 0.00 | 44 | 1013.7 |
| 20260503210922 | 59 | 245 | 13.9 | 23.5 | 0.00 | 0.00 | 0.00 | 45 | 1013.7 |
| 20260503210422 | 59 | 243 | 13.9 | 23.5 | 0.00 | 0.00 | 0.00 | 45 | 1013.9 |
| 20260503205926 | 59 | 253 | 13.0 | 22.6 | 0.00 | 0.00 | 0.00 | 43 | 1013.8 |
| 20260503205922 | 59 | 250 | 13.9 | 21.7 | 0.00 | 0.00 | 0.00 | 44 | 1013.9 |
| 20260503204922 | 59 | 215 | 13.0 | 22.6 | 0.00 | 0.00 | 0.00 | 42 | 1013.9 |
| 20260503204422 | 59 | 243 | 13.9 | 22.6 | 0.00 | 0.00 | 0.00 | 43 | 1013.9 |
| 20260503203922 | 59 | 247 | 15.6 | 22.6 | 0.00 | 0.00 | 0.00 | 43 | 1014.0 |
| 20260503203422 | 59 | 233 | 14.8 | 22.6 | 0.00 | 0.00 | 0.00 | 41 | 1014.2 |
| 20260503202922 | 60 | 209 | 14.8 | 22.6 | 0.00 | 0.00 | 0.00 | 43 | 1014.2 |
| 20260503202422 | 59 | 234 | 15.6 | 22.6 | 0.00 | 0.00 | 0.00 | 42 | 1014.2 |
| 20260503201922 | 60 | 216 | 14.8 | 22.6 | 0.00 | 0.00 | 0.00 | 42 | 1014.3 |
| 20260503201422 | 60 | 205 | 13.9 | 22.6 | 0.00 | 0.00 | 0.00 | 42 | 1014.3 |
| 20260503200922 | 60 | 219 | 14.8 | 22.6 | 0.00 | 0.00 | 0.00 | 43 | 1014.5 |
| 20260503200421 | 60 | 238 | 16.5 | 22.6 | 0.00 | 0.00 | 0.00 | 43 | 1014.5 |
| 20260503195921 | 60 | 227 | 16.5 | 22.6 | 0.00 | 0.00 | 0.00 | 43 | 1014.6 |
| 20260503195421 | 60 | 225 | 15.6 | 26.1 | 0.00 | 0.00 | 0.00 | 41 | 1014.6 |
| 20260503194921 | 60 | 248 | 13.0 | 26.1 | 0.00 | 0.00 | 0.00 | 41 | 1014.7 |
| 20260503194422 | 60 | 220 | 13.0 | 22.6 | 0.00 | 0.00 | 0.00 | 43 | 1014.7 |
| 20260503193922 | 60 | 229 | 15.6 | 25.2 | 0.00 | 0.00 | 0.00 | 40 | 1014.7 |
| 20260503193422 | 60 | 214 | 13.0 | 25.2 | 0.00 | 0.00 | 0.00 | 41 | 1014.9 |
| 20260503192918 | 61 | 212 | 12.2 | 20.0 | 0.00 | 0.00 | 0.00 | 42 | 1014.8 |
| 20260503192418 | 60 | 201 | 13.9 | 25.2 | 0.00 | 0.00 | 0.00 | 41 | 1014.8 |
| 20260503191918 | 60 | 249 | 14.8 | 25.2 | 0.00 | 0.00 | 0.00 | 42 | 1014.8 |
| 20260503191418 | 60 | 251 | 14.8 | 25.2 | 0.00 | 0.00 | 0.00 | 42 | 1015.0 |
| 20260503191148 | 60 | 203 | 15.6 | 25.2 | 0.00 | 0.00 | 0.00 | 41 | 1015.0 |
| 20260503190418 | 60 | 250 | 14.8 | 26.1 | 0.00 | 0.00 | 0.00 | 41 | 1015.0 |
| 20260503185918 | 60 | 244 | 14.8 | 26.1 | 0.00 | 0.00 | 0.00 | 41 | 1015.2 |
| 20260503185417 | 60 | 219 | 15.6 | 27.8 | 0.00 | 0.00 | 0.00 | 42 | 1015.2 |
| 20260503185148 | 60 | 233 | 14.8 | 27.8 | 0.00 | 0.00 | 0.00 | 41 | 1015.4 |
| 20260503184413 | 60 | 233 | 12.2 | 23.5 | 0.00 | 0.00 | 0.00 | 44 | 1015.3 |
| 20260503183914 | 60 | 219 | 13.9 | 24.3 | 0.00 | 0.00 | 0.00 | 43 | 1015.3 |
| 20260503183414 | 59 | 238 | 15.6 | 24.3 | 0.00 | 0.00 | 0.00 | 41 | 1015.6 |
| 20260503183144 | 59 | 242 | 14.8 | 24.3 | 0.00 | 0.00 | 0.00 | 42 | 1015.5 |
| 20260503182413 | 59 | 229 | 14.8 | 24.3 | 0.00 | 0.00 | 0.00 | 41 | 1015.7 |
| 20260503181913 | 59 | 262 | 14.8 | 24.3 | 0.00 | 0.00 | 0.00 | 42 | 1015.7 |
| 20260503181413 | 59 | 227 | 14.8 | 25.2 | 0.00 | 0.00 | 0.00 | 41 | 1015.8 |
| 20260503180913 | 59 | 217 | 13.9 | 25.2 | 0.00 | 0.00 | 0.00 | 44 | 1015.9 |
| 20260503180413 | 60 | 244 | 13.0 | 25.2 | 0.00 | 0.00 | 0.00 | 42 | 1015.9 |
| 20260503175908 | 59 | 231 | 14.8 | 25.2 | 0.00 | 0.00 | 0.00 | 42 | 1016.0 |
| 20260503175411 | 59 | 238 | 14.8 | 25.2 | 0.00 | 0.00 | 0.00 | 44 | 1016.1 |
| 20260503175407 | 59 | 219 | 16.5 | 25.2 | 0.00 | 0.00 | 0.00 | 41 | 1016.1 |
| 20260503174407 | 59 | 252 | 13.9 | 25.2 | 0.00 | 0.00 | 0.00 | 42 | 1016.2 |
| 20260503173908 | 59 | 223 | 13.9 | 23.5 | 0.00 | 0.00 | 0.00 | 43 | 1016.2 |
| 20260503173407 | 59 | 225 | 13.9 | 23.5 | 0.00 | 0.00 | 0.00 | 47 | 1016.2 |
| 20260503172908 | 59 | 237 | 13.9 | 22.6 | 0.00 | 0.00 | 0.00 | 45 | 1016.4 |
| 20260503172406 | 59 | 198 | 13.0 | 22.6 | 0.00 | 0.00 | 0.00 | 44 | 1016.4 |
| 20260503171906 | 59 | 229 | 13.0 | 22.6 | 0.00 | 0.00 | 0.00 | 44 | 1016.4 |
| 20260503171403 | 59 | 246 | 13.9 | 22.6 | 0.00 | 0.00 | 0.00 | 45 | 1016.4 |
| 20260503170903 | 58 | 217 | 13.0 | 22.6 | 0.00 | 0.00 | 0.00 | 43 | 1016.5 |
| 20260503170403 | 59 | 240 | 13.0 | 22.6 | 0.00 | 0.00 | 0.00 | 44 | 1016.6 |